This demonstration page uses our WeatherBlox Daily Observations layout. Learn more.

Hourly Observations for February 27, 2017

Temp ( °F °C ) Dew Point ( °F °C ) Humidity (%) Winds ( mph kmh ) Pressure ( in mb ) Visibility ( mi km ) Precip ( " mm )
12:15 am 00:15 Clear 22 -5.5 13 -10.7 67 67 SE 3 6 30.09 1019 10 16.0934 0 0
12:35 am 00:35 Clear 23 -5 12 -11 63 63 SE 5 7 30.06 1018 10 16.0934 0 0
12:55 am 00:55 Clear 24 -4.3 11 -11.9 56 56 SE 3 6 30.06 1018 10 16.0934 0 0
1:15 am 01:15 Clear 24 -4.3 11 -11.7 57 57 SE 5 7 30.06 1018 10 16.0934 0 0
1:35 am 01:35 Clear 25 -4.1 11 -11.8 55 55 Calm 30.03 1017 10 16.0934 0 0
1:55 am 01:55 Clear 24 -4.4 11 -11.8 57 57 SE 3 6 30.06 1018 10 16.0934 0 0
2:15 am 02:15 Clear 24 -4.4 11 -11.7 57 57 Calm 30.06 1018 10 16.0934 0 0
2:35 am 02:35 Clear 23 -5.2 11 -11.8 60 60 Calm 30.06 1018 10 16.0934 0 0
2:55 am 02:55 Clear 24 -4.6 11 -11.8 58 58 SSE 5 7 30.06 1018 10 16.0934 0 0
3:15 am 03:15 Clear 24 -4.2 11 -11.9 55 55 SSE 5 7 30.03 1017 10 16.0934 0 0
3:35 am 03:35 Clear 21 -6.3 10 -12.2 63 63 SE 5 7 30.06 1018 10 16.0934 0 0
3:55 am 03:55 Clear 23 -4.8 11 -11.5 60 60 SSE 5 7 30.03 1017 10 16.0934 0 0
4:15 am 04:15 Clear 23 -5 11 -11.6 60 60 SSE 5 7 30.03 1017 10 16.0934 0 0
4:35 am 04:35 Clear 24 -4.6 11 -11.6 58 58 SSE 7 11 30.03 1017 10 16.0934 0 0
4:55 am 04:55 Clear 24 -4.3 11 -11.4 58 58 SSE 8 13 30 1016 10 16.0934 0 0
5:15 am 05:15 Clear 23 -5.2 11 -11.5 62 62 SSE 6 9 30.03 1017 10 16.0934 0 0
5:35 am 05:35 Clear 23 -5.1 11 -11.6 61 61 S 5 7 30.03 1017 10 16.0934 0 0
5:55 am 05:55 Clear 22 -5.5 11 -11.6 63 63 S 3 6 30.03 1017 10 16.0934 0 0
6:15 am 06:15 Clear 22 -5.3 11 -11.7 61 61 S 3 6 30.03 1017 10 16.0934 0 0
6:35 am 06:35 Clear 21 -6 11 -11.9 63 63 SSE 5 7 30.03 1017 10 16.0934 0 0
6:55 am 06:55 Clear 22 -5.7 11 -11.7 63 63 SSE 5 7 30.03 1017 10 16.0934 0 0
7:15 am 07:15 Sunny 22 -5.6 11 -11.6 63 63 S 6 9 30.03 1017 10 16.0934 0 0
7:35 am 07:35 Sunny 21 -6.1 11 -11.6 65 65 SSE 5 7 30.03 1017 10 16.0934 0 0
7:55 am 07:55 Sunny 21 -5.9 13 -10.4 71 71 SSE 5 7 30.03 1017 10 16.0934 0 0
8:15 am 08:15 Sunny 23 -4.9 14 -9.9 68 68 S 5 7 30.03 1017 10 16.0934 0 0
8:35 am 08:35 Sunny 28 -2 17 -8.4 62 62 SSW 5 7 30 1016 10 16.0934 0 0
8:55 am 08:55 Sunny 32 0 20 -6.8 61 61 S 6 9 29.97 1015 10 16.0934 0 0
9:15 am 09:15 Sunny 35 1.6 22 -5.4 60 60 SSW 10 17 29.94 1014 10 16.0934 0 0
9:35 am 09:35 Sunny 37 2.6 24 -4.5 60 60 S 12 19 29.94 1014 10 16.0934 0 0
9:55 am 09:55 Sunny 39 3.8 24 -4.2 56 56 S 13 20 29.91 1013 10 16.0934 0 0
10:15 am 10:15 Partly Cloudy 40 4.3 24 -4.5 53 53 S 15 24 29.91 1013 10 16.0934 0 0
10:35 am 10:35 Sunny 41 5.1 24 -4.4 51 51 S 18 30 29.88 1012 10 16.0934 0 0
10:55 am 10:55 Sunny 43 5.9 25 -4.1 49 49 SSE 17 28 29.85 1011 10 16.0934 0 0
11:15 am 11:15 Sunny 45 7.1 25 -3.8 46 46 SSE 22 35 29.85 1011 10 16.0934 0 0
11:35 am 11:35 Partly Cloudy 45 7.3 26 -3.5 47 47 S 20 31 29.8 1009 10 16.0934 0 0
11:55 am 11:55 Partly Cloudy 47 8.6 27 -2.6 46 46 SSE 17 28 29.8 1009 10 16.0934 0 0
12:15 pm 12:15 Sunny 47 8.2 29 -1.8 50 50 SSE 22 35 29.8 1009 10 16.0934 0 0
12:35 pm 12:35 Sunny 48 8.9 30 -1.2 49 49 SSE 22 35 29.8 1009 10 16.0934 0 0
12:55 pm 12:55 Sunny 48 9.1 30 -1.1 49 49 S 20 31 29.8 1009 10 16.0934 0 0
1:15 pm 13:15 Sunny 49 9.3 29 -1.4 47 47 S 17 28 29.77 1008 10 16.0934 0 0
1:35 pm 13:35 Sunny 50 10.2 30 -0.9 46 46 SSE 16 26 29.74 1007 10 16.0934 0 0
1:55 pm 13:55 Sunny 51 10.8 30 -1.1 44 44 S 18 30 29.71 1006 10 16.0934 0 0
2:15 pm 14:15 Sunny 53 11.4 31 -0.6 44 44 S 14 22 29.71 1006 10 16.0934 0 0
2:35 pm 14:35 Sunny 54 12.1 32 -0.1 43 43 S 12 19 29.68 1005 10 16.0934 0 0
2:55 pm 14:55 Sunny 55 12.6 30 -1 39 39 S 13 20 29.68 1005 10 16.0934 0 0
3:15 pm 15:15 Sunny 55 13 30 -0.9 39 39 S 15 24 29.62 1003 10 16.0934 0 0
3:35 pm 15:35 Sunny 56 13.1 29 -1.9 36 36 SSW 18 30 29.62 1003 10 16.0934 0 0
3:55 pm 15:55 Sunny 56 13.4 25 -3.8 30 30 SSW 15 24 29.62 1003 10 16.0934 0 0
4:15 pm 16:15 Sunny 56 13.5 25 -3.7 30 30 SSW 13 20 29.62 1003 10 16.0934 0 0
4:35 pm 16:35 Sunny 57 13.8 23 -5 27 27 SW 12 19 29.62 1003 10 16.0934 0 0
4:55 pm 16:55 Sunny 56 13.6 22 -5.7 26 26 SSW 14 22 29.62 1003 10 16.0934 0 0
5:15 pm 17:15 Sunny 55 12.9 19 -7.4 24 24 SSW 12 19 29.62 1003 10 16.0934 0 0
5:35 pm 17:35 Sunny 53 11.6 20 -6.5 28 28 SSW 7 11 29.65 1004 10 16.0934 0 0
5:55 pm 17:55 Sunny 53 11.7 20 -6.6 27 27 S 6 9 29.65 1004 10 16.0934 0 0
6:15 pm 18:15 Sunny 51 10.8 21 -6.1 30 30 S 3 6 29.65 1004 10 16.0934 0 0
6:35 pm 18:35 Clear 48 8.8 20 -6.4 34 34 S 7 11 29.68 1005 10 16.0934 0 0
6:55 pm 18:55 Clear 46 7.5 20 -6.7 36 36 SSE 5 7 29.68 1005 10 16.0934 0 0
7:15 pm 19:15 Clear 41 5 20 -6.5 44 44 SE 5 7 29.71 1006 10 16.0934 0 0
7:35 pm 19:35 Clear 38 3.5 21 -6 50 50 SE 9 15 29.68 1005 10 16.0934 0 0
7:55 pm 19:55 Clear 38 3.4 22 -5.6 52 52 ESE 8 13 29.68 1005 10 16.0934 0 0
8:15 pm 20:15 Clear 38 3.3 24 -4.7 56 56 ESE 10 17 29.68 1005 10 16.0934 0 0
8:35 pm 20:35 Clear 40 4.2 24 -4.5 54 54 ESE 10 17 29.68 1005 10 16.0934 0 0
8:55 pm 20:55 Clear 40 4.6 25 -3.9 54 54 ESE 13 20 29.68 1005 10 16.0934 0 0
9:15 pm 21:15 Clear 40 4.7 30 -1 67 67 ESE 12 19 29.65 1004 10 16.0934 0 0
9:35 pm 21:35 Clear 40 4.2 32 0 74 74 ESE 10 17 29.65 1004 10 16.0934 0 0
9:55 pm 21:55 Clear 39 3.9 33 0.4 78 78 SE 9 15 29.65 1004 10 16.0934 0 0
10:15 pm 22:15 Clear 40 4.3 34 1.2 80 80 SE 8 13 29.65 1004 10 16.0934 0 0
10:35 pm 22:35 Clear 40 4.2 35 1.4 82 82 SE 12 19 29.65 1004 10 16.0934 0 0
10:55 pm 22:55 Clear 40 4.6 35 1.8 82 82 SSE 9 15 29.65 1004 10 16.0934 0 0
11:15 pm 23:15 Clear 39 3.8 34 1.3 84 84 SSE 12 19 29.62 1003 10 16.0934 0 0
11:35 pm 23:35 Clear 39 3.7 35 1.7 87 87 SSE 8 13 29.62 1003 10 16.0934 0 0
11:55 pm 23:55 Clear 38 3.6 35 1.9 89 89 Calm 29.62 1003 10 16.0934 0 0

Powered by AerisWeather